Glendale Luke AFB, AZ

10:20 PM MST on December 15, 2019 (GMT -0700)
Luke Air Force Base

Weather History for KLUF - August, 2019

Change the Weather History Date:

Saturday, August 31, 2019

  Actual Average Record
Temperature  
Mean Temperature 98 °F -  
Max Temperature 108 °F 106 °F 114 °F (1950)
Min Temperature 88 °F 73 °F 57 °F (1953)
Cooling Degree Days 33    
Growing Degree Days 48 (Base 50)    
Moisture  
Dew Point 55 °F    
Average Humidity 25    
Maximum Humidity 36    
Minimum Humidity 14    
Precipitation  
Precipitation 0.00 in - - ()
Sea Level Pressure  
Sea Level Pressure 29.76 in    
Wind  
Wind Speed 9 mph (SW)    
Max Wind Speed 18 mph    
Max Gust Speed -    
Visibility 10 miles    
Events      
Averages and records for this station are not official NWS values.
T = Trace of Precipitation, MM = Missing Value Source: NWS Daily Summary

Daily Weather History Graph

Daily Weather History Graph

Search for Another Location

Airport or City:

Astronomy

Aug. 31, 2019 Rise Set
Actual Time 6:02 AM MST 6:56 PM MST
Civil Twilight 5:37 AM MST 7:21 PM MST
Nautical Twilight 5:07 AM MST 7:51 PM MST
Astronomical Twilight 4:36 AM MST 8:22 PM MST
Moon 7:21 AM MST (8/31) 8:15 PM MST (8/31)
Length of Visible Light 13h 44m
Length of Day
12h 53m
Waxing Crescent, 3% of the Moon is Illuminated
Aug 31
Waxing Crescent
Sep 5
First Quarter
Sep 13
Full
Sep 21
Last Quarter
Sep 28
New

Hourly Weather History & Observations

Time (MST) Temp. Heat Index Dew Point Humidity Pressure Visibility Wind Dir Wind Speed Gust Speed Precip Events Conditions
12:58 AM 93.2 °F - 50.9 °F 24% 29.73 in 10.0 mi South 4.6 mph - N/A   Clear
1:58 AM 92.1 °F - 46.6 °F 21% 29.73 in 10.0 mi WSW 4.6 mph - N/A   Clear
2:58 AM 91.6 °F - 47.3 °F 22% 29.74 in 10.0 mi SW 13.8 mph - N/A   Clear
3:58 AM 90.9 °F 88.9 °F 55.0 °F 30% 29.76 in 10.0 mi SW 16.1 mph - N/A   Scattered Clouds
4:58 AM 90.0 °F 88.3 °F 56.1 °F 32% 29.78 in 10.0 mi WSW 18.4 mph - N/A   Partly Cloudy
5:58 AM 88.9 °F 87.5 °F 56.8 °F 34% 29.80 in 10.0 mi WSW 11.5 mph - N/A   Clear
6:58 AM 89.8 °F 89.1 °F 59.2 °F 36% 29.86 in 10.0 mi SW 11.5 mph - N/A   Clear
7:58 AM 92.5 °F 91.9 °F 59.2 °F 33% 29.86 in 10.0 mi WSW 8.1 mph - N/A   Clear
8:58 AM 93.6 °F 93.4 °F 60.1 °F 33% 29.88 in 10.0 mi SSW 9.2 mph - N/A   Clear
9:58 AM 95.2 °F 95.5 °F 60.6 °F 32% 29.86 in 10.0 mi West 8.1 mph - N/A   Clear
10:58 AM 98.6 °F 98.5 °F 59.7 °F 27% 29.85 in 10.0 mi NNE 6.9 mph - N/A   Clear
11:58 AM 100.2 °F 100.0 °F 59.0 °F 25% 29.82 in 10.0 mi North 4.6 mph - N/A   Partly Cloudy
12:58 PM 101.3 °F 101.1 °F 57.7 °F 24% 29.81 in 10.0 mi North 4.6 mph - N/A   Clear
1:58 PM 103.6 °F 103.5 °F 57.2 °F 22% 29.76 in 10.0 mi Calm Calm - N/A   Partly Cloudy
2:58 PM 104.9 °F 105.4 °F 58.3 °F 22% 29.73 in 10.0 mi SW 10.4 mph - N/A   Clear
3:58 PM 107.1 °F 106.7 °F 55.9 °F 19% 29.69 in 10.0 mi SSW 12.7 mph - N/A   Clear
4:58 PM 108.5 °F - 48.7 °F 14% 29.67 in 10.0 mi WSW 12.7 mph - N/A   Clear
5:58 PM 106.9 °F - 51.1 °F 16% 29.67 in 10.0 mi SSW 12.7 mph - N/A   Clear
6:58 PM 104.0 °F - 52.0 °F 18% 29.67 in 10.0 mi SSW 10.4 mph - N/A   Clear
7:58 PM 101.5 °F - 50.0 °F 18% 29.68 in 10.0 mi SW 8.1 mph - N/A   Clear
8:58 PM 99.0 °F - 50.9 °F 20% 29.71 in 10.0 mi SW 4.6 mph - N/A   Clear
9:58 PM 96.3 °F 94.0 °F 53.6 °F 24% 29.72 in 10.0 mi WSW 6.9 mph - N/A   Clear
10:58 PM 96.6 °F - 52.7 °F 23% 29.73 in 10.0 mi SW 4.6 mph - N/A   Mostly Cloudy
11:58 PM 95.7 °F 93.7 °F 54.1 °F 25% 29.74 in 10.0 mi WSW 4.6 mph - N/A   Mostly Cloudy